This demonstration page uses our WeatherBlox Daily Observations layout. Learn more.

Left ArrowRight Arrow

40.97296, -117.73568

Hourly Observations for August 27, 2022

Temp ( °F °C ) Dew Point ( °F °C ) Humidity (%) Winds ( mph kmh ) Pressure ( in mb ) Visibility ( mi km ) Precip ( " mm )
12:56 am 00:56 Clear 66 18.9 21 -6.1 18 18 Calm 29.81 1010 10 16 0.00 0.00
1:56 am 01:56 Clear 68 20 23 -5 18 18 undefined N/A 29.80 1009 10 16 0.00 0.00
2:56 am 02:56 Clear 62 16.7 24 -4.4 23 23 SSE 9 15 29.80 1009 10 16 0.00 0.00
3:56 am 03:56 Clear 66 18.9 23 -5 19 19 S 8 13 29.80 1009 10 16 0.00 0.00
4:56 am 04:56 Clear 67 19.4 23 -5 19 19 S 8 13 29.80 1009 10 16 0.00 0.00
5:56 am 05:56 Clear 59 15 23 -5 25 25 S 8 13 29.83 1010 10 16 0.00 0.00
6:56 am 06:56 Sunny 63 17.2 25 -3.9 23 23 S 7 11 29.84 1010 10 16 0.00 0.00
7:56 am 07:56 Sunny 70 21.1 26 -3.3 19 19 Calm 29.86 1011 10 16 0.00 0.00
8:56 am 08:56 Sunny 77 25 27 -2.8 16 16 SW 5 7 29.84 1011 10 16 0.00 0.00
9:56 am 09:56 Sunny 83 28.3 24 -4.4 11 11 VRB 3 6 29.83 1010 10 16 0.00 0.00
10:56 am 10:56 Sunny 86 30 24 -4.4 10 10 W 12 19 29.81 1010 10 16 0.00 0.00
11:56 am 11:56 Sunny 88 31.1 23 -5 9 9 WSW 12 19 29.81 1010 10 16 0.00 0.00
12:56 pm 12:56 Sunny 90 32.2 23 -5 9 9 undefined N/A 29.78 1009 10 16 0.00 0.00
1:56 pm 13:56 Sunny 91 32.8 24 -4.4 9 9 SSW 14 22 29.74 1007 10 16 0.00 0.00
2:56 pm 14:56 Sunny 91 32.8 22 -5.6 8 8 WSW 8 13 29.73 1007 10 16 0.00 0.00
3:56 pm 15:56 Sunny 91 32.8 23 -5 8 8 WNW 13 20 29.71 1006 10 16 0.00 0.00
4:56 pm 16:56 Sunny 88 31.1 23 -5 9 9 WNW 9 15 29.70 1006 10 16 0.00 0.00
5:56 pm 17:56 Sunny 90 32.2 24 -4.4 9 9 W 12 19 29.70 1006 10 16 0.00 0.00
6:56 pm 18:56 Sunny 87 30.6 21 -6.1 9 9 WNW 10 17 29.70 1006 10 16 0.00 0.00
7:56 pm 19:56 Clear 77 25 21 -6.1 12 12 WNW 8 13 29.70 1006 10 16 0.00 0.00
8:56 pm 20:56 Clear 69 20.6 22 -5.6 17 17 S 3 6 29.72 1006 10 16 0.00 0.00
9:56 pm 21:56 Clear 67 19.4 21 -6.1 17 17 W 3 6 29.72 1007 10 16 0.00 0.00
10:56 pm 22:56 Clear 66 18.9 N/A N/A W 8 13 29.74 1007 10 16 0.00 0.00
11:56 pm 23:56 Clear 62 16.7 N/A N/A WNW 7 11 29.75 1008 10 16 0.00 0.00

Powered by AerisWeather